TimeMDT,TemperatureF,Dew PointF,Humidity,Sea Level PressureIn,VisibilityMPH,Wind Direction,Wind SpeedMPH,Gust SpeedMPH,PrecipitationIn,Events,Conditions,WindDirDegrees,DateUTC
12:53 AM,45.0,36.0,71,29.87,10.0,ESE,3.5,-,N/A,,Clear,110,2012-10-11 06:53:00
1:53 AM,45.0,37.0,74,29.86,10.0,Calm,Calm,-,N/A,,Clear,0,2012-10-11 07:53:00
2:53 AM,46.0,39.0,76,29.87,5.0,North,4.6,-,N/A,,Haze,360,2012-10-11 08:53:00
3:53 AM,44.1,37.9,79,29.90,6.0,NNW,5.8,-,N/A,,Haze,330,2012-10-11 09:53:00
4:53 AM,46.0,30.9,56,29.94,10.0,NE,18.4,29.9,N/A,,Clear,40,2012-10-11 10:53:00
5:53 AM,44.1,30.9,60,30.03,10.0,Calm,Calm,-,N/A,,Clear,0,2012-10-11 11:53:00
6:53 AM,42.1,32.0,67,30.11,10.0,North,10.4,-,N/A,,Clear,10,2012-10-11 12:53:00
7:53 AM,41.0,33.1,73,30.14,10.0,North,5.8,-,N/A,,Clear,360,2012-10-11 13:53:00
8:53 AM,41.0,34.0,76,30.20,10.0,NNE,8.1,-,N/A,,Clear,20,2012-10-11 14:53:00
9:53 AM,44.1,34.0,68,30.22,10.0,North,3.5,-,N/A,,Scattered Clouds,10,2012-10-11 15:53:00
10:53 AM,45.0,34.0,65,30.22,10.0,NE,9.2,-,N/A,,Clear,40,2012-10-11 16:53:00
11:53 AM,46.9,34.0,61,30.23,10.0,NE,9.2,-,N/A,,Clear,40,2012-10-11 17:53:00
12:53 PM,48.9,34.0,56,30.22,10.0,Variable,6.9,-,N/A,,Clear,0,2012-10-11 18:53:00
1:53 PM,51.8,33.8,50,30.21,10.0,ENE,12.7,18.4,N/A,,Clear,70,2012-10-11 19:53:00
2:53 PM,52.0,32.0,47,30.19,10.0,East,10.4,18.4,N/A,,Clear,90,2012-10-11 20:53:00
3:53 PM,51.8,32.0,47,30.22,10.0,East,13.8,-,N/A,,Clear,90,2012-10-11 21:53:00
4:53 PM,51.1,30.9,46,30.20,10.0,East,13.8,-,N/A,,Clear,80,2012-10-11 22:53:00
5:53 PM,48.0,30.9,52,30.22,10.0,East,10.4,-,N/A,,Clear,80,2012-10-11 23:53:00
6:53 PM,42.8,30.2,61,30.24,10.0,East,5.8,-,N/A,,Clear,90,2012-10-12 00:53:00
7:53 PM,39.0,30.0,70,30.29,10.0,East,6.9,-,N/A,,Clear,100,2012-10-12 01:53:00
8:53 PM,41.0,30.0,65,30.28,10.0,East,10.4,-,N/A,,Clear,100,2012-10-12 02:53:00
9:53 PM,39.0,30.0,70,30.29,10.0,ESE,8.1,-,N/A,,Clear,110,2012-10-12 03:53:00
10:53 PM,39.0,28.9,67,30.30,10.0,SE,16.1,21.9,N/A,,Clear,130,2012-10-12 04:53:00
11:53 PM,36.0,28.0,73,30.29,10.0,ESE,12.7,-,N/A,,Clear,120,2012-10-12 05:53:00